Date String (YYYY-MM-DD hh:mm:ss) UTC,Instrument flags,Ambient pressure (hPa),Sample flow (lpm),Bypass flow (lpm),Sample temperature (°C),Ambient temperature (°C),ASC tube jacket temperature (°C),LED temperature (°C),Box temperature (°C),Sample RH (%),Span deviation,Mass concentration (μg/m³),Mass concentration (μg/m³),Mass concentration (μg/m³)
DateTimeUTC,F1_M11,P_M11,Q1_M11,Q2_M11,T1_M11,T2_M11,T3_M11,T4_M11,T5_M11,U1_M11,ZSPAN_M11,X2_M11,X0_M11,X1_M11
2023-02-14 14:00:00,,0801.7,5.01,0.00,21.9,20.6,00.0,30.9,23.7,09.5,0000.0,0001.79,0004.03,0001.31
2023-02-14 14:01:00,,0801.7,4.97,0.00,22.0,22.0,00.0,30.9,24.0,09.4,0000.0,0001.78,0004.00,0001.31
2023-02-14 14:02:00,,0801.7,5.00,0.00,22.2,22.7,00.0,30.9,24.2,09.4,0000.0,0001.78,0004.41,0001.31
2023-02-14 14:03:00,,0801.7,5.00,0.00,22.2,22.3,00.0,30.9,24.2,09.2,0000.0,0001.77,0004.47,0001.30
2023-02-14 14:04:00,,0801.7,4.99,0.00,22.2,21.9,00.0,31.0,24.1,08.9,0000.0,0001.79,0005.38,0001.30
2023-02-14 14:05:00,,0801.7,5.00,0.00,22.2,21.5,00.0,31.0,24.0,08.9,0000.0,0001.78,0005.41,0001.30
2023-02-14 14:06:00,,0801.7,4.99,0.00,22.2,21.3,00.0,31.0,24.0,09.0,0000.0,0001.78,0005.83,0001.29
2023-02-14 14:07:00,,0801.7,5.00,0.00,22.2,21.1,00.0,31.0,24.0,09.1,0000.0,0001.73,0005.61,0001.29
2023-02-14 14:08:00,,0801.7,5.00,0.00,22.2,20.9,00.0,31.1,23.9,09.0,0000.0,0001.72,0005.31,0001.29
2023-02-14 14:09:00,,0801.6,5.00,0.00,22.2,20.8,00.0,31.1,23.9,08.8,0000.0,0001.78,0005.01,0001.30
2023-02-14 14:10:00,,0801.6,5.00,0.00,22.2,20.6,00.0,31.1,23.9,08.6,0000.0,0001.79,0005.03,0001.30
2023-02-14 14:11:00,,0801.7,5.00,0.00,22.1,20.5,00.0,31.0,23.8,08.6,0000.0,0001.77,0004.98,0001.31
2023-02-14 14:12:00,,0801.7,4.99,0.00,22.1,20.4,00.0,31.0,23.7,08.7,0000.0,0001.79,0005.07,0001.32
2023-02-14 14:13:00,,0801.6,5.00,0.00,22.1,20.3,00.0,31.0,23.7,08.7,0000.0,0001.78,0004.74,0001.33
2023-02-14 14:14:00,,0801.5,5.00,0.00,22.0,20.2,00.0,31.0,23.7,08.8,0000.0,0001.81,0004.67,0001.34
2023-02-14 14:15:00,,0801.4,5.00,0.00,22.0,20.1,00.0,31.0,23.7,09.0,0000.0,0001.87,0003.99,0001.35
2023-02-14 14:16:00,,0801.4,5.01,0.00,22.0,20.1,00.0,31.0,23.6,09.3,0000.0,0001.94,0004.57,0001.37
2023-02-14 14:17:00,,0801.4,5.00,0.00,22.0,20.1,00.0,31.0,23.5,09.3,0000.0,0001.96,0004.38,0001.39
2023-02-14 14:18:00,,0801.5,5.00,0.00,21.9,20.1,00.0,30.9,23.5,09.1,0000.0,0001.98,0004.43,0001.41
2023-02-14 14:19:00,,0801.4,5.00,0.00,22.0,20.9,00.0,30.9,23.7,09.0,0000.0,0002.00,0004.16,0001.42
2023-02-14 14:20:00,,0801.5,4.96,0.00,22.1,22.2,00.0,30.9,24.1,09.2,0000.0,0002.03,0004.17,0001.43
2023-02-14 14:21:00,,0801.6,4.93,0.00,22.2,23.1,00.0,30.9,24.4,09.1,0000.0,0002.03,0004.16,0001.43
2023-02-14 14:22:00,,0801.6,4.99,0.00,22.3,22.6,00.0,31.0,24.3,08.9,0000.0,0002.08,0004.34,0001.43
2023-02-14 14:23:00,,0801.7,5.02,0.00,22.3,22.1,00.0,31.0,24.2,08.7,0000.0,0002.09,0004.30,0001.43
2023-02-14 14:24:00,,0801.6,5.04,0.00,22.3,21.6,00.0,31.1,24.1,08.7,0000.0,0002.08,0004.18,0001.43
2023-02-14 14:25:00,,0801.6,4.99,0.00,22.3,21.2,00.0,31.1,24.0,08.7,0000.0,0002.05,0004.12,0001.42
2023-02-14 14:26:00,,0801.5,5.00,0.00,22.2,20.9,00.0,31.1,23.9,08.8,0000.0,0001.99,0004.26,0001.42
2023-02-14 14:27:00,,0801.5,4.99,0.00,22.2,20.7,00.0,31.1,23.8,08.9,0000.0,0001.92,0003.67,0001.43
2023-02-14 14:28:00,,0801.5,5.00,0.00,22.2,20.5,00.0,31.1,23.8,09.0,0000.0,0001.92,0003.46,0001.43
2023-02-14 14:29:00,,0801.6,5.01,0.00,22.1,20.4,00.0,31.1,23.7,08.9,0000.0,0001.94,0004.11,0001.42
2023-02-14 14:30:00,,0801.6,5.00,0.00,22.1,20.3,00.0,31.1,23.7,08.9,0000.0,0001.97,0005.66,0001.41
2023-02-14 14:31:00,,0801.7,5.00,0.00,22.1,20.2,00.0,31.0,23.7,08.8,0000.0,0001.94,0005.57,0001.39
2023-02-14 14:32:00,,0801.7,5.00,0.00,22.0,20.1,00.0,31.0,23.7,08.9,0000.0,0001.94,0005.59,0001.38
2023-02-14 14:33:00,,0801.7,5.01,0.00,22.0,20.1,00.0,31.0,23.6,09.0,0000.0,0001.89,0005.46,0001.38
2023-02-14 14:34:00,,0801.8,5.00,0.00,22.0,20.1,00.0,31.0,23.6,09.1,0000.0,0001.87,0006.09,0001.37
2023-02-14 14:35:00,,0801.7,5.01,0.00,22.0,20.0,00.0,31.0,23.6,09.0,0000.0,0001.87,0006.84,0001.38
2023-02-14 14:36:00,,0801.8,5.01,0.00,21.9,20.3,00.0,31.0,23.6,08.7,0000.0,0001.89,0007.30,0001.38
2023-02-14 14:37:00,,0801.8,4.98,0.00,22.0,21.6,00.0,30.9,23.9,08.5,0000.0,0001.94,0008.05,0001.37
2023-02-14 14:38:00,,0801.9,4.98,0.00,22.2,22.9,00.0,30.9,24.3,08.3,0000.0,0001.93,0008.02,0001.35
2023-02-14 14:39:00,,0801.9,5.03,0.00,22.3,23.2,00.0,31.0,24.4,08.1,0000.0,0001.90,0007.98,0001.33
2023-02-14 14:40:00,,0801.9,5.01,0.00,22.3,22.6,00.0,31.0,24.3,08.0,0000.0,0001.91,0007.76,0001.32
2023-02-14 14:41:00,,0801.9,5.01,0.00,22.3,22.0,00.0,31.1,24.2,08.0,0000.0,0001.88,0006.40,0001.33
2023-02-14 14:42:00,,0801.8,4.97,0.00,22.3,21.6,00.0,31.1,24.1,08.2,0000.0,0001.90,0007.22,0001.33
2023-02-14 14:43:00,,0801.9,5.00,0.00,22.3,21.2,00.0,31.1,24.0,08.3,0000.0,0001.91,0007.69,0001.33
2023-02-14 14:44:00,,0801.8,5.00,0.00,22.3,21.0,00.0,31.1,24.0,08.5,0000.0,0001.89,0007.96,0001.33
2023-02-14 14:45:00,,0801.8,4.99,0.00,22.2,20.8,00.0,31.1,23.9,08.4,0000.0,0001.89,0007.65,0001.34
2023-02-14 14:46:00,,0801.9,5.00,0.00,22.2,20.7,00.0,31.1,23.9,08.4,0000.0,0001.94,0007.14,0001.35
2023-02-14 14:47:00,,0801.9,5.01,0.00,22.2,20.6,00.0,31.1,23.9,08.6,0000.0,0001.99,0007.03,0001.36
2023-02-14 14:48:00,,0801.8,5.01,0.00,22.2,20.5,00.0,31.1,23.9,08.7,0000.0,0001.99,0005.56,0001.37
2023-02-14 14:49:00,,0801.9,5.01,0.00,22.2,20.5,00.0,31.1,23.9,08.8,0000.0,0002.02,0005.89,0001.38
2023-02-14 14:50:00,,0801.9,5.01,0.00,22.1,20.5,00.0,31.1,23.9,08.6,0000.0,0002.06,0006.46,0001.40
2023-02-14 14:51:00,,0801.9,4.97,0.00,22.1,20.4,00.0,31.1,23.9,08.4,0000.0,0002.10,0006.74,0001.40
2023-02-14 14:52:00,,0801.9,4.99,0.00,22.1,20.4,00.0,31.1,23.8,08.5,0000.0,0002.14,0007.39,0001.40
2023-02-14 14:53:00,,0801.9,5.01,0.00,22.1,20.3,00.0,31.0,23.8,08.0,0000.0,0002.08,0006.60,0001.41
2023-02-14 14:54:00,,0802.0,5.00,0.00,22.0,20.3,00.0,31.0,23.7,08.1,0000.0,0002.03,0005.76,0001.40
2023-02-14 14:55:00,,0802.1,4.99,0.00,22.0,20.3,00.0,31.0,23.8,08.3,0000.0,0002.03,0005.15,0001.41
2023-02-14 14:56:00,,0802.2,5.00,0.00,22.0,20.4,00.0,31.0,23.8,08.4,0000.0,0002.06,0005.33,0001.41
2023-02-14 14:57:00,,0802.1,5.01,0.00,22.0,20.4,00.0,31.0,23.8,08.4,0000.0,0002.00,0005.18,0001.40
2023-02-14 14:58:00,,0802.1,5.00,0.00,22.0,20.3,00.0,31.0,23.8,08.4,0000.0,0001.93,0004.90,0001.39
2023-02-14 14:59:00,,0802.0,5.01,0.00,22.0,20.3,00.0,31.0,23.7,08.3,0000.0,0001.94,0004.85,0001.38
